TimeEST,TemperatureF,Dew PointF,Humidity,Sea Level PressureIn,VisibilityMPH,Wind Direction,Wind SpeedMPH,Gust SpeedMPH,PrecipitationIn,Events,Conditions,WindDirDegrees,DateUTC
12:15 AM,28.4,26.6,93,30.07,10.0,Calm,Calm,-,N/A,,Overcast,0,2012-12-20 05:15:00
12:34 AM,30.2,28.4,93,30.05,10.0,ESE,4.6,-,N/A,,Overcast,110,2012-12-20 05:34:00
12:54 AM,28.4,28.4,100,30.05,10.0,SE,3.5,-,N/A,,Overcast,130,2012-12-20 05:54:00
1:15 AM,30.2,28.4,93,30.04,10.0,ESE,4.6,-,N/A,,Overcast,120,2012-12-20 06:15:00
1:34 AM,30.2,28.4,93,30.04,10.0,Calm,Calm,-,N/A,,Overcast,0,2012-12-20 06:34:00
2:15 AM,30.2,28.4,93,30.02,10.0,East,5.8,-,N/A,,Overcast,90,2012-12-20 07:15:00
2:34 AM,30.2,28.4,93,30.01,10.0,East,5.8,-,N/A,,Overcast,90,2012-12-20 07:34:00
2:55 AM,30.2,28.4,93,30.01,10.0,ESE,5.8,-,N/A,,Overcast,110,2012-12-20 07:55:00
3:14 AM,30.2,28.4,93,30.01,10.0,East,5.8,-,N/A,,Overcast,100,2012-12-20 08:14:00
3:35 AM,30.2,28.4,93,30.00,10.0,East,5.8,-,N/A,,Overcast,100,2012-12-20 08:35:00
3:54 AM,30.2,28.4,93,30.00,10.0,East,3.5,-,N/A,,Overcast,100,2012-12-20 08:54:00
4:15 AM,30.2,28.4,93,30.01,10.0,East,5.8,-,N/A,,Overcast,90,2012-12-20 09:15:00
4:35 AM,30.2,28.4,93,29.99,10.0,East,6.9,-,N/A,,Overcast,90,2012-12-20 09:35:00
4:54 AM,30.2,28.4,93,29.98,10.0,ENE,8.1,-,N/A,,Overcast,70,2012-12-20 09:54:00
5:15 AM,30.2,28.4,93,29.97,10.0,East,6.9,-,N/A,,Overcast,80,2012-12-20 10:15:00
5:35 AM,30.2,28.4,93,29.97,10.0,East,5.8,-,N/A,,Overcast,80,2012-12-20 10:35:00
5:54 AM,30.2,28.4,93,29.96,10.0,East,6.9,-,N/A,,Overcast,80,2012-12-20 10:54:00
6:15 AM,30.2,28.4,93,29.95,10.0,ENE,6.9,-,N/A,,Overcast,70,2012-12-20 11:15:00
6:34 AM,30.2,28.4,93,29.94,10.0,East,9.2,-,N/A,,Overcast,80,2012-12-20 11:34:00
6:54 AM,30.2,28.4,93,29.92,10.0,East,9.2,-,N/A,,Overcast,80,2012-12-20 11:54:00
7:15 AM,30.2,30.2,100,29.92,10.0,East,11.5,-,N/A,,Overcast,90,2012-12-20 12:15:00
7:34 AM,30.2,30.2,100,29.91,10.0,East,10.4,-,N/A,,Overcast,90,2012-12-20 12:34:00
7:55 AM,30.2,30.2,100,29.89,10.0,East,11.5,17.3,N/A,,Overcast,80,2012-12-20 12:55:00
8:14 AM,32.0,30.2,93,29.88,10.0,East,8.1,-,N/A,,Overcast,80,2012-12-20 13:14:00
8:34 AM,32.0,30.2,93,29.88,10.0,East,10.4,-,N/A,,Overcast,80,2012-12-20 13:34:00
8:55 AM,32.0,30.2,93,29.86,7.0,East,11.5,-,N/A,Snow,Light Snow,80,2012-12-20 13:55:00
9:14 AM,30.2,30.2,100,29.85,3.0,ENE,10.4,18.4,N/A,Snow,Light Snow,70,2012-12-20 14:14:00
9:35 AM,30.2,30.2,100,29.84,1.5,ENE,10.4,16.1,N/A,Snow,Light Snow,60,2012-12-20 14:35:00
9:55 AM,30.2,30.2,100,29.83,1.0,ENE,10.4,-,N/A,Snow,Light Snow,60,2012-12-20 14:55:00
10:14 AM,30.2,28.4,93,29.82,0.5,ENE,9.2,16.1,N/A,Snow,Light Snow,70,2012-12-20 15:14:00
10:35 AM,30.2,28.4,93,29.81,0.8,ENE,12.7,-,N/A,Snow,Light Snow,60,2012-12-20 15:35:00
10:55 AM,30.2,28.4,93,29.80,1.0,ENE,11.5,-,N/A,Snow,Light Snow,60,2012-12-20 15:55:00
11:14 AM,30.2,28.4,93,29.78,0.8,ENE,11.5,-,N/A,Snow,Light Snow,60,2012-12-20 16:14:00
11:35 AM,30.2,28.4,93,29.77,0.8,NE,13.8,20.7,N/A,Snow,Light Snow,50,2012-12-20 16:35:00
11:54 AM,30.2,28.4,93,29.75,0.8,ENE,12.7,19.6,N/A,Snow,Light Snow,60,2012-12-20 16:54:00
12:15 PM,30.2,28.4,93,29.73,0.8,NE,15.0,-,N/A,Snow,Light Snow,50,2012-12-20 17:15:00
12:35 PM,30.2,28.4,93,29.71,0.8,NE,12.7,19.6,N/A,Snow,Light Snow,50,2012-12-20 17:35:00
12:54 PM,30.2,28.4,93,29.68,1.2,NE,15.0,19.6,N/A,Snow,Light Snow,40,2012-12-20 17:54:00
1:15 PM,30.2,28.4,93,29.66,1.2,NE,17.3,24.2,N/A,Snow,Light Snow,40,2012-12-20 18:15:00
1:34 PM,30.2,28.4,93,29.64,1.2,NE,13.8,23.0,N/A,Snow,Light Snow,50,2012-12-20 18:34:00
1:54 PM,30.2,28.4,93,29.61,1.2,NNE,18.4,26.5,N/A,Snow,Light Snow,30,2012-12-20 18:54:00
2:15 PM,30.2,28.4,93,29.59,1.0,NE,17.3,28.8,N/A,Snow,Light Snow,40,2012-12-20 19:15:00
2:34 PM,30.2,28.4,93,29.58,0.8,NNE,17.3,23.0,N/A,Snow,Light Snow,30,2012-12-20 19:34:00
2:55 PM,30.2,28.4,93,29.58,0.5,NNE,16.1,21.9,N/A,Snow,Snow,30,2012-12-20 19:55:00
3:14 PM,30.2,28.4,93,29.56,0.5,NE,13.8,20.7,N/A,Snow,Light Snow,40,2012-12-20 20:14:00
3:35 PM,30.2,28.4,93,29.56,0.5,NNE,15.0,23.0,N/A,Snow,Snow,30,2012-12-20 20:35:00
3:55 PM,30.2,28.4,93,29.55,0.5,NNE,13.8,19.6,N/A,Snow,Snow,30,2012-12-20 20:55:00
4:14 PM,30.2,28.4,93,29.54,0.2,NNE,11.5,19.6,N/A,Snow,Snow,30,2012-12-20 21:14:00
4:35 PM,30.2,28.4,93,29.54,0.2,NNE,15.0,18.4,N/A,Snow,Snow,30,2012-12-20 21:35:00
4:55 PM,30.2,28.4,93,29.53,1.0,NNE,13.8,18.4,N/A,Snow,Light Snow,30,2012-12-20 21:55:00
5:14 PM,28.4,28.4,100,29.52,1.5,NNE,16.1,21.9,N/A,Snow,Light Snow,20,2012-12-20 22:14:00
5:35 PM,28.4,28.4,100,29.52,2.0,NNE,13.8,18.4,N/A,Snow,Light Snow,20,2012-12-20 22:35:00
5:55 PM,28.4,28.4,100,29.51,1.0,NNE,15.0,21.9,N/A,Snow,Snow,20,2012-12-20 22:55:00
6:14 PM,28.4,28.4,100,29.51,1.0,NNE,13.8,21.9,N/A,Snow,Light Snow,30,2012-12-20 23:14:00
6:35 PM,28.4,28.4,100,29.50,1.0,NNE,11.5,18.4,N/A,Snow,Light Snow,30,2012-12-20 23:35:00
6:54 PM,28.4,28.4,100,29.49,1.5,NNE,12.7,20.7,N/A,Snow,Light Snow,30,2012-12-20 23:54:00
7:14 PM,28.4,26.6,93,29.48,1.5,NNE,12.7,20.7,N/A,Snow,Light Snow,20,2012-12-21 00:14:00
7:35 PM,28.4,26.6,93,29.48,1.2,NNE,15.0,19.6,N/A,Snow,Light Snow,30,2012-12-21 00:35:00
7:54 PM,28.4,26.6,93,29.46,1.2,NNE,12.7,20.7,N/A,Snow,Light Snow,30,2012-12-21 00:54:00
8:15 PM,28.4,26.6,93,29.47,3.0,NNE,11.5,18.4,N/A,Snow,Light Snow,30,2012-12-21 01:15:00
8:34 PM,28.4,26.6,93,29.46,2.5,NNE,10.4,16.1,N/A,Snow,Light Snow,20,2012-12-21 01:34:00
9:15 PM,28.4,26.6,93,29.45,2.5,NNE,12.7,20.7,N/A,Snow,Light Snow,20,2012-12-21 02:15:00
9:34 PM,28.4,26.6,93,29.44,3.0,NNE,12.7,17.3,N/A,Snow,Light Snow,20,2012-12-21 02:34:00
9:55 PM,26.6,26.6,100,29.44,1.8,North,10.4,19.6,N/A,Snow,Light Snow,10,2012-12-21 02:55:00
10:15 PM,26.6,26.6,100,29.43,1.5,North,10.4,-,N/A,Snow,Light Snow,10,2012-12-21 03:15:00
10:34 PM,26.6,24.8,93,29.43,1.2,North,12.7,17.3,N/A,Snow,Light Snow,10,2012-12-21 03:34:00
10:55 PM,26.6,24.8,93,29.43,1.5,North,11.5,18.4,N/A,Snow,Light Snow,10,2012-12-21 03:55:00
11:14 PM,26.6,24.8,93,29.43,1.8,North,12.7,18.4,N/A,Snow,Light Snow,360,2012-12-21 04:14:00
11:34 PM,26.6,24.8,93,29.43,2.5,North,11.5,19.6,N/A,Snow,Light Snow,360,2012-12-21 04:34:00
11:55 PM,26.6,24.8,93,29.43,3.0,North,13.8,18.4,N/A,Snow,Light Snow,10,2012-12-21 04:55:00